Location: Lombard
(41.8800°N, 88.0080°W)
Time: 13:13:38
(UTC-05:00)

MOZHAYETS 4 - Visible Passes

Search period start: 16 May 2022 00:00
Search period end: 26 May 2022 00:00
Orbit: 661 x 678 km, 98.2° (Epoch: 16 May)

Date Brightness Start Highest point End Pass type
(mag) Time Alt. Az. Time Alt. Az. Time Alt. Az.
16 May 10.4 01:52:59 10° E 01:55:37 15° ENE 01:58:15 10° NNE visible
16 May 7.7 03:30:25 35° SSW 03:32:11 59° W 03:36:45 10° NNW visible
17 May 9.4 02:25:06 17° ESE 02:27:53 30° ENE 02:31:53 10° N visible
17 May 8.7 04:03:17 22° SW 04:04:55 27° W 04:08:51 10° NW visible
18 May 8.0 02:57:58 28° SSE 03:00:18 64° ENE 03:04:53 10° N visible
18 May 9.6 04:36:10 11° WSW 04:37:48 13° W 04:39:51 10° WNW visible
19 May 10.4 01:53:37 10° E 01:56:18 15° ENE 01:58:58 10° NNE visible
19 May 7.8 03:30:52 31° SSW 03:32:52 59° WSW 03:37:26 10° NNW visible
20 May 9.4 02:25:33 15° ESE 02:28:33 30° ENE 02:32:36 10° N visible
20 May 8.8 04:03:44 21° SW 04:05:36 27° W 04:09:31 10° NW visible
21 May 8.0 02:58:25 25° SSE 03:00:58 65° ENE 03:05:33 10° N visible
21 May 9.6 04:36:37 10° WSW 04:38:29 13° W 04:40:29 10° WNW visible
22 May 10.4 01:54:14 10° E 01:56:58 16° ENE 01:59:41 10° NNE visible
22 May 7.8 03:31:19 28° S 03:33:33 58° W 03:38:07 10° NNW visible
23 May 9.4 02:26:00 14° ESE 02:29:13 31° ENE 02:33:16 10° N visible
23 May 8.8 04:04:11 19° SW 04:06:16 27° W 04:10:11 10° NW visible
24 May 8.0 02:58:53 23° SSE 03:01:38 66° ENE 03:06:14 10° N visible
24 May 9.6 04:37:12 10° WSW 04:39:09 12° W 04:41:06 10° WNW visible
25 May 10.3 01:54:51 10° E 01:57:36 16° ENE 02:00:22 10° NNE visible
25 May 7.8 03:31:46 26° S 03:34:12 57° W 03:38:46 10° NNW visible
